Weather History for KGYY - February, 2014

Change the Weather History Date:

Thursday, February 20, 2014

  Actual Average Record
Temperature  
Mean Temperature 44 °F -  
Max Temperature 51 °F 35 °F 55 °F (1976)
Min Temperature 36 °F 19 °F -4 °F (2015)
Degree Days  
Heating Degree Days 22    
Moisture  
Dew Point 34 °F    
Average Humidity 81    
Maximum Humidity 94    
Minimum Humidity 67    
Precipitation  
Precipitation 0.05 in - - ()
Sea Level Pressure  
Sea Level Pressure 29.57 in    
Wind  
Wind Speed 11 mph (SSE)    
Max Wind Speed 34 mph    
Max Gust Speed 58 mph    
Visibility 7 miles    
Events Fog , Rain    
Averages and records for this station are not official NWS values.
T = Trace of Precipitation, MM = Missing Value Source: NWS Daily Summary

Daily Weather History Graph

Daily Weather History Graph

Search for Another Location

Airport or City:

Trip Planner

Search our weather history database for the weather conditions in past years. The results will help you decide how hot, cold, wet, or windy it might be!

Date:

Astronomy

Feb. 20, 2014 Rise Set
Actual Time 6:37 AM CST 5:29 PM CST
Civil Twilight 6:09 AM CST 5:57 PM CST
Nautical Twilight 5:37 AM CST 6:29 PM CST
Astronomical Twilight 5:05 AM CST 7:02 PM CST
Moon 11:28 PM CST (2/20) 9:15 AM CST (2/20)
Length of Visible Light 11h 47m
Length of Day
10h 51m
Waning Gibbous, 70% of the Moon is Illuminated
Feb 20
Waning Gibbous
Feb 22
Last Quarter
Mar 1
New
Mar 8
First Quarter
Mar 16
Full

Hourly Weather History & Observations

Time (CST) Temp. Windchill Dew Point Humidity Pressure Visibility Wind Dir Wind Speed Gust Speed Precip Events Conditions
12:15 AM 36.7 °F 32.0 °F 30.6 °F 78% 29.94 in 10.0 mi ESE 5.8 mph - N/A   Mostly Cloudy
12:35 AM 36.9 °F 34.3 °F 30.2 °F 77% 29.94 in 10.0 mi SSE 3.5 mph - N/A   Mostly Cloudy
12:55 AM 36.9 °F 34.3 °F 30.2 °F 77% 29.93 in 10.0 mi SE 3.5 mph - N/A   Overcast
1:15 AM 36.9 °F 33.1 °F 30.6 °F 78% 29.90 in 10.0 mi ESE 4.6 mph - N/A   Overcast
1:35 AM 37.0 °F - 30.2 °F 76% 29.90 in 10.0 mi Calm Calm - N/A   Overcast
1:55 AM 36.5 °F 33.9 °F 30.6 °F 79% 29.89 in 10.0 mi ESE 3.5 mph - N/A   Mostly Cloudy
2:15 AM 36.1 °F 31.4 °F 30.7 °F 81% 29.86 in 7.0 mi East 5.8 mph - N/A   Scattered Clouds
2:35 AM 36.9 °F 33.1 °F 30.7 °F 79% 29.87 in 10.0 mi ESE 4.6 mph - N/A   Mostly Cloudy
2:55 AM 36.5 °F 33.9 °F 30.7 °F 80% 29.85 in 10.0 mi East 3.5 mph - N/A   Scattered Clouds
3:15 AM 36.9 °F 31.4 °F 30.9 °F 79% 29.82 in 10.0 mi East 6.9 mph - N/A   Mostly Cloudy
3:35 AM 37.4 °F 33.8 °F 30.7 °F 77% 29.84 in 10.0 mi ESE 4.6 mph - N/A   Mostly Cloudy
4:45 AM 39.2 °F 31.2 °F 32.0 °F 75% 29.77 in 5.0 mi SSE 13.8 mph - N/A Rain Light Rain
5:45 AM 37.4 °F 30.8 °F 33.8 °F 87% 29.73 in 3.0 mi East 9.2 mph 20.7 mph N/A Rain Light Rain
6:45 AM 37.4 °F 28.9 °F 35.6 °F 93% 29.70 in 2.0 mi East 13.8 mph - N/A Rain Light Rain
7:45 AM 37.4 °F 31.4 °F 35.6 °F 93% 29.71 in 1.0 mi NE 8.1 mph - N/A Rain Light Rain
8:45 AM 39.2 °F 31.2 °F 37.4 °F 93% 29.63 in 1.5 mi ESE 13.8 mph - N/A Rain Light Rain
9:45 AM 39.2 °F 31.2 °F 37.4 °F 93% 29.60 in 4.0 mi ESE 13.8 mph - N/A Rain Light Rain
10:45 AM 39.2 °F 31.2 °F 37.4 °F 93% 29.57 in 3.0 mi ESE 13.8 mph 25.3 mph N/A Rain Light Rain
11:45 AM 39.2 °F 32.5 °F 37.4 °F 93% 29.54 in 3.0 mi ESE 10.4 mph - N/A Rain Light Rain
12:45 PM 41.0 °F 36.4 °F 37.4 °F 87% 29.49 in 2.0 mi ESE 6.9 mph - N/A Rain Light Rain
1:45 PM 41.0 °F 36.4 °F 39.2 °F 93% 29.44 in 1.5 mi ESE 6.9 mph - N/A Rain Light Rain
2:22 PM 41.0 °F 36.4 °F 39.2 °F 93% 29.43 in 1.0 mi ESE 6.9 mph - N/A   Overcast
2:45 PM 41.0 °F 35.8 °F 39.2 °F 93% 29.41 in 0.2 mi East 8.1 mph - N/A Fog Fog
3:45 PM 44.6 °F 36.6 °F 42.8 °F 93% 29.36 in 0.2 mi ESE 19.6 mph - N/A Fog Fog
4:45 PM 48.2 °F - 46.4 °F 93% 29.29 in 0.2 mi SE 26.5 mph - N/A Rain Light Rain
5:45 PM 50.0 °F - 48.2 °F 94% 29.27 in 2.0 mi SSE 23.0 mph - N/A Rain Light Rain
6:45 PM 51.8 °F - 50.0 °F 94% 29.29 in 5.0 mi South 33.4 mph - N/A   Overcast
7:45 PM 48.2 °F - 41.0 °F 76% 29.33 in 10.0 mi SW 34.5 mph 50.6 mph N/A   Scattered Clouds
8:15 PM 43.9 °F 35.2 °F 36.0 °F 74% 29.37 in 10.0 mi SW 21.9 mph 33.4 mph N/A   Mostly Cloudy
8:35 PM 41.9 °F 31.1 °F 33.8 °F 73% 29.38 in 10.0 mi SW 29.9 mph 44.9 mph N/A   Overcast
8:45 PM 41.0 °F 30.2 °F 32.0 °F 70% 29.39 in 10.0 mi SW 27.6 mph 57.5 mph N/A   Overcast
8:55 PM 40.5 °F 32.1 °F 32.0 °F 72% 29.39 in 10.0 mi SW 16.1 mph 34.5 mph N/A   Overcast
9:15 PM 39.7 °F 30.6 °F 31.6 °F 73% 29.39 in 10.0 mi WSW 18.4 mph 27.6 mph N/A   Overcast
9:35 PM 39.6 °F 30.3 °F 31.1 °F 72% 29.40 in 10.0 mi WSW 18.4 mph 32.2 mph N/A   Overcast
9:45 PM 39.2 °F 27.6 °F 30.2 °F 70% 29.40 in 10.0 mi WSW 28.8 mph 46.0 mph N/A   Overcast
9:55 PM 39.2 °F 29.3 °F 31.1 °F 73% 29.41 in 10.0 mi WSW 20.7 mph 29.9 mph N/A   Overcast
10:15 PM 39.2 °F 29.6 °F 30.6 °F 71% 29.42 in 10.0 mi WSW 19.6 mph 33.4 mph N/A   Overcast
10:35 PM 39.2 °F 30.2 °F 30.2 °F 70% 29.42 in 10.0 mi SW 17.3 mph 34.5 mph N/A   Overcast
10:55 PM 39.2 °F 31.2 °F 30.2 °F 70% 29.42 in 10.0 mi SW 13.8 mph 27.6 mph N/A   Overcast
11:15 PM 39.2 °F 29.3 °F 29.8 °F 69% 29.42 in 10.0 mi WSW 20.7 mph 36.8 mph N/A   Overcast
11:35 PM 39.4 °F 30.1 °F 29.3 °F 67% 29.42 in 10.0 mi WSW 18.4 mph 33.4 mph N/A   Overcast
11:55 PM 39.2 °F 30.5 °F 29.3 °F 68% 29.42 in 10.0 mi SW 16.1 mph 28.8 mph N/A   Overcast